Tracking 19720 objects as of 26-Jun-2019
HD Live streaming from Space Station
objects crossing your sky now

COSMOS 1325

Track COSMOS 1325 now!
10-day predictions
COSMOS 1325 is classified as:


NORAD ID: 12980
Int'l Code: 1981-116F
Perigee: 1,488.1 km
Apogee: 1,623.9 km
Inclination: 74.0 °
Period: 117.1 minutes
Semi major axis: 7926 km
RCS: 0.7 m2 (medium)
Launch date: November 28, 1981
Source: Commonwealth of Independent States (former USSR) (CIS)
Launch site: PLESETSK MISSILE AND SPACE COMPLEX (PKMTR)
aabbcc
Your satellite tracking list
Your tracking list is empty




NASA's NSSDC Master Catalog

Two Line Element Set (TLE):
1 12980U 81116F   19175.58936368 -.00000017 +00000-0 -15669-4 0  9999
2 12980 073.9832 012.0666 0085619 263.6336 123.9292 12.30101367687039
Source of the keplerian elements: AFSPC